Tracking 19219 objects as of 19-Jul-2018
HD Live streaming from Space Station
objects crossing your sky now

FENGYUN 1C DEB

Track FENGYUN 1C DEB now!
10-day predictions


NORAD ID: 30741
Int'l Code: 1999-025ATB
Perigee: 856.2 km
Apogee: 864.1 km
Inclination: 98.9 °
Period: 102.0 minutes
Semi major axis: 7231 km
RCS: 0.0071 m2 (small)
Launch date: May 10, 1999
Source: People's Republic of China (PRC)
Launch site: Taiyaun Space Center, China (TSC)

Note: This is SATELLITE DEBRIS
aabbcc
Your satellite tracking list
Your tracking list is empty




NASA's NSSDC Master Catalog

Two Line Element Set (TLE):
1 30741U 99025ATB 18199.57217169 -.00000027  00000-0  95973-5 0  9994
2 30741  98.9128 226.9920 0005468 230.6090 281.7639 14.11853945587554
Source of the keplerian elements: AFSPC